Fowler, IL

12:43 PM CDT on August 28, 2016 (GMT -0500)
Quincy Regional-Baldwin

Weather History for KUIN - January, 2014

Change the Weather History Date:

Saturday, January 18, 2014

  Actual Average Record
Temperature  
Mean Temperature 25 °F 26 °F  
Max Temperature 38 °F 34 °F 64 °F (1951)
Min Temperature 11 °F 18 °F -16 °F (1930)
Degree Days  
Heating Degree Days 40 39  
Month to date heating degree days 721 698  
Since 1 July heating degree days 3037 2889  
Cooling Degree Days 0 0  
Month to date cooling degree days 0 0  
Year to date cooling degree days 0 0  
Moisture  
Dew Point 21 °F    
Average Humidity 68    
Maximum Humidity 85    
Minimum Humidity 50    
Precipitation  
Precipitation 0.02 in 0.05 in 1.10 in (1996)
Month to date precipitation 0.63 0.91  
Year to date precipitation 0.63 0.91  
Sea Level Pressure  
Sea Level Pressure 29.77 in    
Wind  
Wind Speed 12 mph (WSW)    
Max Wind Speed 26 mph    
Max Gust Speed 31 mph    
Visibility 9 miles    
Events Rain , Snow    
T = Trace of Precipitation, MM = Missing Value Source: NWS Daily Summary

Daily Weather History Graph

Daily Weather History Graph

Search for Another Location

Airport or City:

Trip Planner

Search our weather history database for the weather conditions in past years. The results will help you decide how hot, cold, wet, or windy it might be!

Date:

Astronomy

Jan. 18, 2014 Rise Set
Actual Time 7:23 AM CST 5:07 PM CST
Civil Twilight 6:53 AM CST 5:37 PM CST
Nautical Twilight 6:20 AM CST 6:10 PM CST
Astronomical Twilight 5:48 AM CST 6:42 PM CST
Moon 7:49 PM CST (1/18) 8:23 AM CST (1/18)
Length of Visible Light 10h 43m
Length of Day
9h 44m
Waning Gibbous, 94% of the Moon is Illuminated
Jan 18
Waning Gibbous
Jan 23
Last Quarter
Jan 30
New
Feb 6
First Quarter
Feb 14
Full

Hourly Weather History & Observations

Time (CST) Temp. Windchill Dew Point Humidity Pressure Visibility Wind Dir Wind Speed Gust Speed Precip Events Conditions
12:54 AM 10.9 °F 0.2 °F 6.1 °F 81% 30.04 in 10.0 mi SSW 6.9 mph - N/A   Clear
1:54 AM 14.0 °F 6.5 °F 7.0 °F 74% 30.01 in 10.0 mi SSW 4.6 mph - N/A   Clear
2:54 AM 16.0 °F 6.3 °F 7.0 °F 68% 29.97 in 10.0 mi South 6.9 mph - N/A   Clear
3:54 AM 17.1 °F 5.8 °F 9.0 °F 71% 29.92 in 10.0 mi SSE 9.2 mph - N/A   Overcast
4:54 AM 19.0 °F 9.0 °F 9.0 °F 65% 29.89 in 10.0 mi South 8.1 mph - N/A   Overcast
5:54 AM 19.9 °F 7.9 °F 9.0 °F 62% 29.83 in 10.0 mi South 11.5 mph - N/A   Overcast
6:54 AM 21.9 °F 8.2 °F 10.0 °F 60% 29.75 in 10.0 mi SSE 16.1 mph - N/A   Overcast
7:54 AM 24.1 °F 12.5 °F 10.0 °F 55% 29.70 in 10.0 mi SSE 12.7 mph - N/A   Overcast
8:54 AM 27.0 °F 15.2 °F 10.9 °F 51% 29.68 in 10.0 mi South 15.0 mph 21.9 mph N/A   Overcast
9:54 AM 27.0 °F 15.2 °F 14.0 °F 58% 29.69 in 10.0 mi SSW 15.0 mph - N/A   Overcast
10:06 AM 28.0 °F 17.0 °F 16.0 °F 61% 29.65 in 4.0 mi SSW 13.8 mph - 0.00 in Snow Light Snow
10:26 AM 28.9 °F 19.2 °F 19.9 °F 69% 29.65 in 1.8 mi SW 11.5 mph - 0.00 in Snow Light Snow
10:44 AM 28.9 °F 18.2 °F 21.9 °F 75% 29.64 in 3.0 mi SW 13.8 mph - 0.00 in Snow Light Snow
10:54 AM 28.9 °F 19.8 °F 21.9 °F 75% 29.67 in 9.0 mi SW 10.4 mph - 0.00 in   Overcast
11:06 AM 30.0 °F 19.5 °F 23.0 °F 75% 29.63 in 10.0 mi SW 13.8 mph - N/A   Overcast
11:54 AM 32.0 °F 23.0 °F 24.1 °F 73% 29.64 in 10.0 mi SW 11.5 mph - N/A   Overcast
12:47 PM 35.1 °F 27.9 °F 27.0 °F 72% 29.59 in 10.0 mi SW 9.2 mph - N/A   Overcast
12:54 PM 35.1 °F 28.6 °F 27.0 °F 72% 29.62 in 10.0 mi SW 8.1 mph - N/A   Overcast
1:21 PM 37.0 °F 30.4 °F 27.0 °F 67% 29.59 in 9.0 mi WSW 9.2 mph - 0.00 in Snow Light Snow
1:54 PM 37.0 °F 33.3 °F 28.9 °F 73% 29.62 in 9.0 mi NW 4.6 mph - 0.00 in   Overcast
2:54 PM 37.0 °F - 30.9 °F 79% 29.64 in 10.0 mi Calm Calm - 0.00 in Rain Light Rain
3:12 PM 37.0 °F 29.8 °F 30.9 °F 79% 29.63 in 7.0 mi West 10.4 mph 16.1 mph 0.01 in Rain Light Rain
3:27 PM 36.0 °F 28.0 °F 32.0 °F 86% 29.64 in 10.0 mi WNW 11.5 mph - 0.02 in Rain Light Rain
3:38 PM 36.0 °F 29.0 °F 33.1 °F 89% 29.64 in 10.0 mi WNW 9.2 mph - 0.02 in   Overcast
3:54 PM 36.0 °F 30.3 °F 33.1 °F 89% 29.68 in 10.0 mi WNW 6.9 mph - 0.02 in   Overcast
4:16 PM 36.0 °F 30.3 °F 33.1 °F 89% 29.67 in 10.0 mi NW 6.9 mph - 0.00 in Rain Light Rain
4:54 PM 35.1 °F 24.1 °F 30.9 °F 85% 29.73 in 10.0 mi WNW 19.6 mph - 0.00 in Rain Light Rain
5:54 PM 34.0 °F 22.7 °F 30.0 °F 85% 29.78 in 10.0 mi WNW 19.6 mph - 0.00 in   Overcast
6:37 PM 30.9 °F 17.8 °F 28.0 °F 89% 29.82 in 8.0 mi NNW 23.0 mph 31.1 mph N/A   Overcast
6:46 PM 30.9 °F 18.1 °F 26.1 °F 82% 29.82 in 10.0 mi North 21.9 mph - N/A   Overcast
6:54 PM 30.0 °F 16.9 °F 26.1 °F 85% 29.86 in 10.0 mi NNW 21.9 mph - N/A   Overcast
7:43 PM 26.1 °F 11.3 °F 19.9 °F 78% 29.88 in 10.0 mi NNW 23.0 mph - N/A   Overcast
7:54 PM 26.1 °F 12.3 °F 19.0 °F 75% 29.92 in 10.0 mi North 19.6 mph - N/A   Overcast
8:54 PM 23.0 °F 7.6 °F 17.1 °F 78% 29.97 in 10.0 mi NNW 21.9 mph - N/A   Overcast
9:54 PM 23.0 °F 9.6 °F 16.0 °F 74% 30.01 in 10.0 mi NNW 16.1 mph - N/A   Overcast
10:54 PM 21.0 °F 6.6 °F 15.1 °F 78% 30.02 in 10.0 mi NW 17.3 mph - N/A   Overcast
11:54 PM 19.9 °F 7.9 °F 14.0 °F 78% 30.04 in 10.0 mi NW 11.5 mph - N/A   Overcast